Port Angeles, WA

7:49 PM PST on February 10, 2016 (GMT -0800)
Fairchild International

Weather History for KCLM - October, 2012

Change the Weather History Date:

Friday, October 5, 2012

  Actual Average Record
Temperature  
Mean Temperature 50 °F -  
Max Temperature 64 °F 60 °F 72 °F (1980)
Min Temperature 37 °F 44 °F 36 °F (1956)
Degree Days  
Heating Degree Days 14    
Moisture  
Dew Point 33 °F    
Average Humidity 51    
Maximum Humidity 77    
Minimum Humidity 26    
Precipitation  
Precipitation 0.00 in - - ()
Sea Level Pressure  
Sea Level Pressure 30.28 in    
Wind  
Wind Speed 8 mph (South)    
Max Wind Speed 10 mph    
Max Gust Speed -    
Visibility 10 miles    
Events      
Averages and records for this station are not official NWS values.
T = Trace of Precipitation, MM = Missing Value Source: NWS Daily Summary

Daily Weather History Graph

Daily Weather History Graph

Search for Another Location

Airport or City:

Trip Planner

Search our weather history database for the weather conditions in past years. The results will help you decide how hot, cold, wet, or windy it might be!

Date:

Astronomy

Oct. 05, 2012 Rise Set
Actual Time 7:19 AM PDT 6:43 PM PDT
Civil Twilight 6:48 AM PDT 7:14 PM PDT
Nautical Twilight 6:12 AM PDT 7:50 PM PDT
Astronomical Twilight 5:36 AM PDT 8:27 PM PDT
Moon 9:50 PM PDT (10/5) 12:53 PM PDT (10/5)
Length of Visible Light 12h 26m
Length of Day
11h 23m
Waning Gibbous, 73% of the Moon is Illuminated
Oct 5
Waning Gibbous
Oct 8
Last Quarter
Oct 15
New
Oct 21
First Quarter
Oct 29
Full

Hourly Weather History & Observations

Time (PDT) Temp. Windchill Dew Point Humidity Pressure Visibility Wind Dir Wind Speed Gust Speed Precip Events Conditions
12:53 AM 48.9 °F - 30.0 °F 48% 30.29 in 10.0 mi WSW 10.4 mph - N/A   Clear
1:53 AM 48.0 °F - 30.0 °F 50% 30.30 in 10.0 mi SW 10.4 mph - N/A   Clear
2:53 AM 46.9 °F - 28.9 °F 50% 30.31 in 10.0 mi SW 9.2 mph - N/A   Clear
3:53 AM 45.0 °F 40.6 °F 30.0 °F 56% 30.30 in 10.0 mi SW 8.1 mph - N/A   Clear
4:53 AM 43.0 °F 40.3 °F 30.9 °F 62% 30.30 in 10.0 mi SSW 4.6 mph - N/A   Clear
5:53 AM 37.9 °F 33.5 °F 30.9 °F 76% 30.31 in 10.0 mi SW 5.8 mph - N/A   Clear
6:53 AM 39.9 °F 36.7 °F 33.1 °F 77% 30.31 in 10.0 mi SSW 4.6 mph - N/A   Clear
7:53 AM 43.0 °F 38.2 °F 33.1 °F 68% 30.32 in 10.0 mi SW 8.1 mph - N/A   Clear
8:53 AM 48.0 °F - 33.1 °F 56% 30.32 in 10.0 mi WSW 6.9 mph - N/A   Clear
9:53 AM 55.9 °F - 39.9 °F 55% 30.32 in 10.0 mi ENE 8.1 mph - N/A   Clear
10:53 AM 57.0 °F - 41.0 °F 55% 30.32 in 10.0 mi East 8.1 mph - N/A   Clear
11:53 AM 57.0 °F - 41.0 °F 55% 30.32 in 10.0 mi Variable 4.6 mph - N/A   Clear
12:53 PM 60.1 °F - 37.0 °F 42% 30.31 in 10.0 mi East 5.8 mph - N/A   Clear
1:53 PM 62.1 °F - 30.0 °F 30% 30.29 in 10.0 mi East 8.1 mph - N/A   Clear
2:53 PM 64.0 °F - 28.9 °F 27% 30.28 in 10.0 mi East 6.9 mph - N/A   Clear
3:53 PM 64.0 °F - 28.9 °F 27% 30.27 in 10.0 mi East 10.4 mph - N/A   Clear
4:53 PM 64.0 °F - 30.0 °F 28% 30.26 in 10.0 mi East 9.2 mph - N/A   Clear
5:53 PM 62.6 °F - 26.6 °F 26% 30.24 in 10.0 mi ESE 5.8 mph - N/A   Clear
6:53 PM 53.1 °F - 33.1 °F 47% 30.25 in 10.0 mi Calm Calm - N/A   Clear
7:53 PM 46.0 °F - 35.1 °F 66% 30.24 in 10.0 mi Calm Calm - N/A   Clear
8:53 PM 46.0 °F 42.5 °F 34.0 °F 63% 30.24 in 10.0 mi SW 6.9 mph - N/A   Clear
9:53 PM 46.9 °F - 32.0 °F 56% 30.24 in 10.0 mi SW 6.9 mph - N/A   Clear
10:53 PM 46.9 °F - 32.0 °F 56% 30.24 in 10.0 mi SW 6.9 mph - N/A   Clear
11:53 PM 48.0 °F - 33.1 °F 56% 30.25 in 10.0 mi SW 5.8 mph - N/A   Clear